Simultaneous Nadir Overpasses (SNOs) Predictions

Prediction of SNOs between AQUA and METOP-A Satellite Orbit:

Table of predicted SNOs for the next 14.0 days since TLE Epoch: 12/16/2011
Index Date Time (AQUA) AQUA Lat,Lon METOP-A Lat,Lon Distance(km) Time Diff (sec)
1 12/18/2011 14:46:40 72.57, -45.32 72.56, -49.83 150.05 59
2 12/18/2011 15:36:27 -73.71, 120.01 -73.70, 120.00 1.34 27
3 12/18/2011 16:25:56 73.79, -72.53 73.76, -72.51 3.11 43
4 12/18/2011 17:15:58 -75.64, 90.39 -75.57, 99.81 260.12 45
5 12/21/2011 10:21:08 73.50, 19.28 73.46, 18.49 25.45 71
6 12/21/2011 11:10:38 -73.73,-173.57 -73.74,-173.53 2.03 5
7 12/21/2011 12:00:07 73.81, -6.13 73.81, -6.04 2.86 65
8 12/24/2011 05:05:13 -71.56, -78.23 -71.59, -86.31 283.55 42
9 12/24/2011 05:55:20 73.67, 85.37 73.69, 85.38 2.22 50
10 12/24/2011 06:44:47 -73.74,-107.14 -73.73,-107.21 2.65 24
11 12/24/2011 07:34:31 74.61, 58.47 74.63, 62.42 116.64 62
12 12/27/2011 00:39:52 -73.17, -14.75 -73.15, -16.86 68.21 68
13 12/27/2011 01:29:30 73.74, 151.69 73.72, 151.77 3.33 17
14 12/27/2011 02:18:56 -73.75, -40.70 -73.76, -40.81 3.43 58
15 12/27/2011 03:09:13 76.27, 120.20 76.22, 133.69 356.10 30
16 12/29/2011 19:24:03 71.50,-112.84 71.47,-121.21 295.41 40
17 12/29/2011 20:14:09 -73.65, 50.72 -73.67, 50.63 3.45 47
18 12/29/2011 21:03:38 73.75,-141.86 73.74,-141.88 1.60 23




NCC Satellite Simultaneous Nadir Overpasses (SNOs) Prediction Service
